Time,TemperatureF,DewpointF,PressureIn,WindDirection,WindDirectionDegrees,WindSpeedMPH,WindSpeedGustMPH,Humidity,HourlyPrecipIn,Conditions,Clouds,dailyrainin,SolarRadiationWatts/m^2,SoftwareType,DateUTC
2013-10-26 00:02:00,41.8,27.0,30.11,SW,225,11.4,11.7,58,0.00,,,0.00,0,TxWx,2013-10-26 05:02:00,
2013-10-26 00:07:00,41.7,27.0,30.11,WSW,245,12.6,12.6,58,0.00,,,0.00,0,TxWx,2013-10-26 05:07:00,
2013-10-26 00:12:00,41.7,27.0,30.11,SSE,168,5.1,5.7,58,0.00,,,0.00,0,TxWx,2013-10-26 05:12:00,
2013-10-26 00:18:00,41.5,27.0,30.11,WSW,240,6.6,7.8,58,0.00,,,0.00,0,TxWx,2013-10-26 05:18:00,
2013-10-26 00:23:00,41.6,27.0,30.10,WSW,250,5.4,5.4,58,0.00,,,0.00,0,TxWx,2013-10-26 05:23:00,
2013-10-26 00:28:00,41.5,27.0,30.10,WSW,245,8.4,8.4,58,0.00,,,0.00,0,TxWx,2013-10-26 05:28:00,
2013-10-26 00:33:00,41.6,27.0,30.10,WSW,240,3.6,3.6,58,0.00,,,0.00,0,TxWx,2013-10-26 05:33:00,
2013-10-26 00:38:00,41.6,27.0,30.10,SW,222,4.2,4.5,58,0.00,,,0.00,0,TxWx,2013-10-26 05:38:00,
2013-10-26 00:43:00,41.5,26.0,30.09,SSW,199,7.2,7.8,58,0.00,,,0.00,0,TxWx,2013-10-26 05:43:00,
2013-10-26 00:48:00,41.5,27.0,30.09,SW,234,7.2,8.7,58,0.00,,,0.00,0,TxWx,2013-10-26 05:48:00,
2013-10-26 00:53:00,41.6,27.0,30.09,WSW,244,9.3,10.5,57,0.00,,,0.00,0,TxWx,2013-10-26 05:53:00,
2013-10-26 00:58:00,41.5,26.0,30.09,SW,232,12.6,13.5,57,0.00,,,0.00,0,TxWx,2013-10-26 05:58:00,
2013-10-26 01:03:00,41.3,26.0,30.09,SW,223,12.0,12.9,58,0.00,,,0.00,0,TxWx,2013-10-26 06:03:00,
2013-10-26 01:08:00,41.3,26.0,30.08,SW,235,9.0,9.9,58,0.00,,,0.00,0,TxWx,2013-10-26 06:08:00,
2013-10-26 01:13:00,41.2,26.0,30.08,SSW,198,8.1,11.1,58,0.00,,,0.00,0,TxWx,2013-10-26 06:13:00,
2013-10-26 01:18:00,41.2,26.0,30.08,SSW,207,9.3,11.7,58,0.00,,,0.00,0,TxWx,2013-10-26 06:18:00,
2013-10-26 01:23:00,41.2,26.0,30.08,WSW,249,6.9,8.4,58,0.00,,,0.00,0,TxWx,2013-10-26 06:23:00,
2013-10-26 01:28:00,41.2,26.0,30.08,SW,221,12.3,17.1,58,0.00,,,0.00,0,TxWx,2013-10-26 06:28:00,
2013-10-26 01:33:00,41.0,26.0,30.07,West,261,6.9,6.9,58,0.00,,,0.00,0,TxWx,2013-10-26 06:33:00,
2013-10-26 01:38:00,40.8,26.0,30.07,WSW,258,14.1,14.1,58,0.00,,,0.00,0,TxWx,2013-10-26 06:38:00,
2013-10-26 01:43:00,40.6,26.0,30.07,WSW,255,12.3,12.3,58,0.00,,,0.00,0,TxWx,2013-10-26 06:43:00,
2013-10-26 01:48:00,40.4,26.0,30.06,SW,218,4.8,6.0,59,0.00,,,0.00,0,TxWx,2013-10-26 06:48:00,
2013-10-26 01:53:00,40.2,26.0,30.06,SW,222,8.4,8.4,59,0.00,,,0.00,0,TxWx,2013-10-26 06:53:00,
2013-10-26 01:58:00,40.1,26.0,30.06,SW,228,6.3,6.3,59,0.00,,,0.00,0,TxWx,2013-10-26 06:58:00,
2013-10-26 02:03:00,40.0,26.0,30.06,South,186,4.8,4.8,60,0.00,,,0.00,0,TxWx,2013-10-26 07:03:00,
2013-10-26 02:08:00,39.9,26.0,30.06,WSW,238,9.3,9.3,60,0.00,,,0.00,0,TxWx,2013-10-26 07:08:00,
2013-10-26 02:13:00,39.9,26.0,30.06,SW,225,3.3,3.9,60,0.00,,,0.00,0,TxWx,2013-10-26 07:13:00,
2013-10-26 02:18:00,39.8,26.0,30.05,WSW,237,6.9,6.9,60,0.00,,,0.00,0,TxWx,2013-10-26 07:18:00,
2013-10-26 02:23:00,39.7,26.0,30.05,WSW,244,10.8,11.1,60,0.00,,,0.00,0,TxWx,2013-10-26 07:23:00,
2013-10-26 02:28:00,39.5,26.0,30.05,SW,236,4.2,4.5,60,0.00,,,0.00,0,TxWx,2013-10-26 07:28:00,
2013-10-26 02:34:00,39.5,26.0,30.05,WSW,250,10.5,11.7,60,0.00,,,0.00,0,TxWx,2013-10-26 07:34:00,
2013-10-26 02:39:00,39.5,25.0,30.04,SW,229,8.1,9.0,60,0.00,,,0.00,0,TxWx,2013-10-26 07:39:00,
2013-10-26 02:44:00,39.5,25.0,30.04,WSW,242,7.8,9.3,60,0.00,,,0.00,0,TxWx,2013-10-26 07:44:00,
2013-10-26 02:49:00,39.6,26.0,30.04,SW,235,12.3,15.3,60,0.00,,,0.00,0,TxWx,2013-10-26 07:49:00,
2013-10-26 02:54:00,39.8,26.0,30.03,SSW,199,13.8,13.8,60,0.00,,,0.00,0,TxWx,2013-10-26 07:54:00,
2013-10-26 02:59:00,39.8,26.0,30.03,WSW,241,6.0,6.9,60,0.00,,,0.00,0,TxWx,2013-10-26 07:59:00,
2013-10-26 03:04:00,39.9,26.0,30.02,West,267,8.4,13.2,59,0.00,,,0.00,0,TxWx,2013-10-26 08:04:00,
2013-10-26 03:09:00,40.0,26.0,30.02,SSE,167,9.6,13.2,59,0.00,,,0.00,0,TxWx,2013-10-26 08:09:00,
2013-10-26 03:14:00,40.0,26.0,30.02,SW,233,12.3,12.3,59,0.00,,,0.00,0,TxWx,2013-10-26 08:14:00,
2013-10-26 03:19:00,40.1,26.0,30.01,WSW,248,7.5,8.7,59,0.00,,,0.00,0,TxWx,2013-10-26 08:19:00,
2013-10-26 03:24:00,40.2,25.0,30.01,SSW,197,10.8,10.8,58,0.00,,,0.00,0,TxWx,2013-10-26 08:24:00,
2013-10-26 03:29:00,40.1,26.0,30.00,SW,226,5.4,5.7,59,0.00,,,0.00,0,TxWx,2013-10-26 08:29:00,
2013-10-26 03:34:00,40.0,26.0,30.00,South,182,10.5,10.5,59,0.00,,,0.00,0,TxWx,2013-10-26 08:34:00,
2013-10-26 03:39:00,40.1,26.0,30.00,WSW,245,11.7,11.7,59,0.00,,,0.00,0,TxWx,2013-10-26 08:39:00,
2013-10-26 03:44:00,40.0,26.0,29.99,WSW,249,9.6,9.6,59,0.00,,,0.00,0,TxWx,2013-10-26 08:44:00,
2013-10-26 03:49:00,40.0,26.0,29.99,SW,216,5.4,7.2,59,0.00,,,0.00,0,TxWx,2013-10-26 08:49:00,
2013-10-26 03:54:00,40.0,26.0,29.98,SW,236,12.6,12.6,59,0.00,,,0.00,0,TxWx,2013-10-26 08:54:00,
2013-10-26 03:59:00,40.0,26.0,29.98,WSW,248,11.7,13.5,59,0.00,,,0.00,0,TxWx,2013-10-26 08:59:00,
2013-10-26 04:04:00,40.2,26.0,29.98,WSW,243,6.3,10.2,59,0.00,,,0.00,0,TxWx,2013-10-26 09:04:00,
2013-10-26 04:09:00,40.4,26.0,29.98,SSW,201,11.1,11.1,59,0.00,,,0.00,0,TxWx,2013-10-26 09:09:00,
2013-10-26 04:15:00,40.5,26.0,29.98,West,262,9.6,9.6,58,0.00,,,0.00,0,TxWx,2013-10-26 09:15:00,
2013-10-26 04:20:00,40.6,26.0,29.97,South,191,4.2,4.2,58,0.00,,,0.00,0,TxWx,2013-10-26 09:20:00,
2013-10-26 04:25:00,40.7,26.0,29.97,WSW,247,9.0,9.6,58,0.00,,,0.00,0,TxWx,2013-10-26 09:25:00,
2013-10-26 04:30:00,40.8,26.0,29.97,WSW,245,3.9,4.8,58,0.00,,,0.00,0,TxWx,2013-10-26 09:30:00,
2013-10-26 04:35:00,40.8,26.0,29.97,West,267,7.8,9.3,58,0.00,,,0.00,0,TxWx,2013-10-26 09:35:00,
2013-10-26 04:40:00,40.8,26.0,29.97,WSW,243,8.7,8.7,58,0.00,,,0.00,0,TxWx,2013-10-26 09:40:00,
2013-10-26 04:45:00,40.9,26.0,29.97,SW,218,6.6,6.6,58,0.00,,,0.00,0,TxWx,2013-10-26 09:45:00,
2013-10-26 04:50:00,41.0,26.0,29.96,WSW,238,12.0,12.0,58,0.00,,,0.00,0,TxWx,2013-10-26 09:50:00,
2013-10-26 04:55:00,41.3,26.0,29.96,South,182,8.7,8.7,58,0.00,,,0.00,0,TxWx,2013-10-26 09:55:00,
2013-10-26 05:00:00,41.5,26.0,29.96,WSW,238,9.3,12.3,57,0.00,,,0.00,0,TxWx,2013-10-26 10:00:00,
2013-10-26 05:05:00,41.5,27.0,29.96,SSW,206,10.2,10.2,57,0.00,,,0.00,0,TxWx,2013-10-26 10:05:00,
2013-10-26 05:10:00,41.7,27.0,29.96,SW,224,3.6,3.9,57,0.00,,,0.00,0,TxWx,2013-10-26 10:10:00,
2013-10-26 05:15:00,41.7,27.0,29.95,SSW,193,8.7,16.8,57,0.00,,,0.00,0,TxWx,2013-10-26 10:15:00,
2013-10-26 05:20:00,41.7,27.0,29.95,SW,217,8.1,9.0,57,0.00,,,0.00,0,TxWx,2013-10-26 10:20:00,
2013-10-26 05:25:00,41.8,27.0,29.94,SW,217,12.3,12.6,57,0.00,,,0.00,0,TxWx,2013-10-26 10:25:00,
2013-10-26 05:30:00,41.8,27.0,29.94,WSW,250,10.8,11.4,57,0.00,,,0.00,0,TxWx,2013-10-26 10:30:00,
2013-10-26 05:35:00,41.9,27.0,29.94,SSW,196,10.2,10.2,57,0.00,,,0.00,0,TxWx,2013-10-26 10:35:00,
2013-10-26 05:40:00,41.9,27.0,29.93,WSW,237,6.9,6.9,57,0.00,,,0.00,0,TxWx,2013-10-26 10:40:00,
2013-10-26 05:45:00,41.9,27.0,29.93,SSW,200,6.3,8.7,57,0.00,,,0.00,0,TxWx,2013-10-26 10:45:00,
2013-10-26 05:50:00,42.0,27.0,29.93,West,261,9.0,9.0,57,0.00,,,0.00,0,TxWx,2013-10-26 10:50:00,
2013-10-26 05:55:00,42.1,27.0,29.93,WSW,247,14.7,14.7,57,0.00,,,0.00,0,TxWx,2013-10-26 10:55:00,
2013-10-26 06:00:00,42.2,26.0,29.93,West,266,16.2,21.0,56,0.00,,,0.00,0,TxWx,2013-10-26 11:00:00,
2013-10-26 06:05:00,42.3,26.0,29.92,WSW,248,18.3,18.3,56,0.00,,,0.00,0,TxWx,2013-10-26 11:05:00,
2013-10-26 06:10:00,42.3,27.0,29.92,West,263,9.3,10.2,57,0.00,,,0.00,0,TxWx,2013-10-26 11:10:00,
2013-10-26 06:15:00,42.4,27.0,29.92,West,280,7.8,8.4,57,0.00,,,0.00,0,TxWx,2013-10-26 11:15:00,
2013-10-26 06:20:00,42.5,27.0,29.92,SSW,212,7.5,7.5,57,0.00,,,0.00,0,TxWx,2013-10-26 11:20:00,
2013-10-26 06:25:00,42.5,27.0,29.92,WSW,237,9.9,9.9,56,0.00,,,0.00,0,TxWx,2013-10-26 11:25:00,
2013-10-26 06:30:00,42.5,28.0,29.92,SW,233,9.3,12.0,57,0.00,,,0.00,0,TxWx,2013-10-26 11:30:00,
2013-10-26 06:35:00,42.6,28.0,29.92,WNW,283,4.8,5.1,57,0.00,,,0.00,0,TxWx,2013-10-26 11:35:00,
2013-10-26 06:41:00,42.6,28.0,29.92,WNW,291,19.5,22.5,57,0.00,,,0.00,0,TxWx,2013-10-26 11:41:00,
2013-10-26 06:46:00,42.7,27.0,29.92,SW,220,7.2,8.1,56,0.00,,,0.00,0,TxWx,2013-10-26 11:46:00,
2013-10-26 06:51:00,42.7,28.0,29.92,West,259,9.3,9.3,57,0.00,,,0.00,0,TxWx,2013-10-26 11:51:00,
2013-10-26 06:56:00,42.7,28.0,29.92,West,259,3.6,6.0,57,0.00,,,0.00,0,TxWx,2013-10-26 11:56:00,
2013-10-26 07:01:00,42.7,28.0,29.92,WSW,255,13.8,15.3,57,0.00,,,0.00,0,TxWx,2013-10-26 12:01:00,
2013-10-26 07:06:00,42.6,28.0,29.92,SW,230,12.3,12.3,57,0.00,,,0.00,0,TxWx,2013-10-26 12:06:00,
2013-10-26 07:11:00,42.6,28.0,29.92,West,259,5.4,7.8,57,0.00,,,0.00,1,TxWx,2013-10-26 12:11:00,
2013-10-26 07:16:00,42.5,28.0,29.92,SW,227,9.3,9.3,58,0.00,,,0.00,2,TxWx,2013-10-26 12:16:00,
2013-10-26 07:21:00,42.5,27.0,29.91,WSW,244,10.5,11.1,58,0.00,,,0.00,3,TxWx,2013-10-26 12:21:00,
2013-10-26 07:26:00,42.5,28.0,29.92,WSW,257,4.8,4.8,59,0.00,,,0.00,4,TxWx,2013-10-26 12:26:00,
2013-10-26 07:31:00,42.6,28.0,29.91,SSW,211,8.7,8.7,59,0.00,,,0.00,10,TxWx,2013-10-26 12:31:00,
2013-10-26 07:36:00,42.6,28.0,29.91,SW,218,11.4,12.0,59,0.00,,,0.00,13,TxWx,2013-10-26 12:36:00,
2013-10-26 07:41:00,42.7,28.0,29.91,West,265,10.8,12.6,59,0.00,,,0.00,14,TxWx,2013-10-26 12:41:00,
2013-10-26 07:46:00,42.7,28.0,29.90,WSW,252,15.9,15.9,59,0.00,,,0.00,28,TxWx,2013-10-26 12:46:00,
2013-10-26 07:51:00,42.8,29.0,29.90,West,281,7.2,11.4,59,0.00,,,0.00,27,TxWx,2013-10-26 12:51:00,
2013-10-26 07:56:00,42.8,29.0,29.90,WSW,240,19.2,19.2,59,0.00,,,0.00,24,TxWx,2013-10-26 12:56:00,
2013-10-26 08:01:00,43.0,29.0,29.90,West,261,7.8,10.8,59,0.00,,,0.00,24,TxWx,2013-10-26 13:01:00,
2013-10-26 08:06:00,43.0,29.0,29.90,West,265,3.9,5.1,59,0.00,,,0.00,23,TxWx,2013-10-26 13:06:00,
2013-10-26 08:11:00,43.1,29.0,29.91,WSW,250,10.8,14.4,59,0.00,,,0.00,15,TxWx,2013-10-26 13:11:00,
2013-10-26 08:16:00,43.2,29.0,29.91,SW,229,15.3,15.3,59,0.00,,,0.00,12,TxWx,2013-10-26 13:16:00,
2013-10-26 08:21:00,43.3,29.0,29.90,SW,234,10.8,10.8,60,0.00,,,0.00,14,TxWx,2013-10-26 13:21:00,
2013-10-26 08:26:00,43.3,29.0,29.90,SW,217,11.1,12.3,60,0.00,,,0.00,13,TxWx,2013-10-26 13:26:00,
2013-10-26 08:31:00,43.3,29.0,29.89,WSW,240,8.1,9.0,60,0.00,,,0.00,18,TxWx,2013-10-26 13:31:00,
2013-10-26 08:37:00,43.5,29.0,29.90,West,264,3.9,6.3,60,0.00,,,0.00,23,TxWx,2013-10-26 13:37:00,
2013-10-26 08:42:00,43.6,30.0,29.89,WSW,238,10.2,11.1,60,0.00,,,0.00,25,TxWx,2013-10-26 13:42:00,
2013-10-26 08:47:00,43.7,30.0,29.89,SSW,200,9.9,10.8,60,0.00,,,0.00,39,TxWx,2013-10-26 13:47:00,
2013-10-26 08:52:00,43.8,30.0,29.89,South,190,11.4,12.9,60,0.00,,,0.00,30,TxWx,2013-10-26 13:52:00,
2013-10-26 08:57:00,43.9,30.0,29.89,WSW,244,5.1,5.4,60,0.00,,,0.00,39,TxWx,2013-10-26 13:57:00,
2013-10-26 09:02:00,44.0,30.0,29.89,WNW,288,7.2,8.7,60,0.00,,,0.00,67,TxWx,2013-10-26 14:02:00,
2013-10-26 09:07:00,44.1,30.0,29.89,West,267,8.7,8.7,60,0.00,,,0.00,95,TxWx,2013-10-26 14:07:00,
2013-10-26 09:12:00,44.4,30.0,29.89,WSW,237,8.1,10.2,60,0.00,,,0.00,128,TxWx,2013-10-26 14:12:00,
2013-10-26 09:17:00,44.5,30.0,29.89,WSW,248,14.1,14.1,60,0.00,,,0.00,121,TxWx,2013-10-26 14:17:00,
2013-10-26 09:22:00,44.7,31.0,29.89,SW,221,4.8,6.9,60,0.00,,,0.00,154,TxWx,2013-10-26 14:22:00,
2013-10-26 09:27:00,44.9,31.0,29.89,West,270,5.7,8.1,59,0.00,,,0.00,136,TxWx,2013-10-26 14:27:00,
2013-10-26 09:32:00,45.0,31.0,29.89,SW,234,16.2,17.7,60,0.00,,,0.00,432,TxWx,2013-10-26 14:32:00,
2013-10-26 09:37:00,45.0,30.0,29.89,WSW,249,10.5,12.3,59,0.00,,,0.00,149,TxWx,2013-10-26 14:37:00,
2013-10-26 09:42:00,45.2,31.0,29.89,WNW,284,8.7,11.7,59,0.00,,,0.00,124,TxWx,2013-10-26 14:42:00,
2013-10-26 09:47:00,45.3,31.0,29.89,SW,235,8.1,12.9,59,0.00,,,0.00,248,TxWx,2013-10-26 14:47:00,
2013-10-26 09:52:00,45.6,32.0,29.89,SW,231,8.4,8.4,59,0.00,,,0.00,225,TxWx,2013-10-26 14:52:00,
2013-10-26 09:57:00,46.0,32.0,29.89,WSW,239,8.4,12.3,59,0.00,,,0.00,269,TxWx,2013-10-26 14:57:00,
2013-10-26 10:02:00,46.7,33.0,29.89,West,262,12.0,12.0,59,0.00,,,0.00,625,TxWx,2013-10-26 15:02:00,
2013-10-26 10:07:00,47.3,33.0,29.88,West,269,4.2,4.5,59,0.00,,,0.00,335,TxWx,2013-10-26 15:07:00,
2013-10-26 10:13:00,46.8,32.0,29.87,West,274,9.9,12.9,57,0.00,,,0.00,248,TxWx,2013-10-26 15:13:00,
2013-10-26 10:18:00,47.0,33.0,29.87,WNW,294,12.6,15.6,57,0.00,,,0.00,172,TxWx,2013-10-26 15:18:00,
2013-10-26 10:23:00,46.9,33.0,29.87,West,274,12.6,15.9,57,0.00,,,0.00,214,TxWx,2013-10-26 15:23:00,
2013-10-26 10:28:00,46.9,32.0,29.87,West,269,17.4,17.4,57,0.00,,,0.00,581,TxWx,2013-10-26 15:28:00,
2013-10-26 10:33:00,47.7,33.0,29.86,West,269,12.3,12.6,57,0.00,,,0.00,555,TxWx,2013-10-26 15:33:00,
2013-10-26 10:38:00,48.4,33.0,29.86,SW,224,7.5,8.4,56,0.00,,,0.00,546,TxWx,2013-10-26 15:38:00,
2013-10-26 10:43:00,48.9,34.0,29.87,WSW,253,9.3,9.3,56,0.00,,,0.00,568,TxWx,2013-10-26 15:43:00,
2013-10-26 10:48:00,49.4,34.0,29.87,West,273,10.2,10.2,56,0.00,,,0.00,604,TxWx,2013-10-26 15:48:00,
2013-10-26 10:53:00,49.0,33.0,29.87,West,264,18.0,21.0,54,0.00,,,0.00,627,TxWx,2013-10-26 15:53:00,
2013-10-26 10:58:00,49.4,33.0,29.87,WNW,284,14.7,22.8,53,0.00,,,0.00,617,TxWx,2013-10-26 15:58:00,
2013-10-26 11:03:00,49.7,34.0,29.87,West,260,9.0,11.7,54,0.00,,,0.00,600,TxWx,2013-10-26 16:03:00,
2013-10-26 11:08:00,50.0,34.0,29.87,WSW,247,19.2,19.2,54,0.00,,,0.00,588,TxWx,2013-10-26 16:08:00,
2013-10-26 11:13:00,50.3,33.0,29.87,West,270,9.3,9.9,52,0.00,,,0.00,618,TxWx,2013-10-26 16:13:00,
2013-10-26 11:18:00,50.9,34.0,29.87,NW,308,5.1,5.4,53,0.00,,,0.00,610,TxWx,2013-10-26 16:18:00,
2013-10-26 11:24:00,50.6,34.0,29.87,WSW,248,7.8,12.0,52,0.00,,,0.00,630,TxWx,2013-10-26 16:24:00,
2013-10-26 11:28:00,51.2,34.0,29.87,West,265,5.4,6.3,53,0.00,,,0.00,634,TxWx,2013-10-26 16:28:00,
2013-10-26 11:34:00,51.3,34.0,29.87,West,270,6.6,9.6,52,0.00,,,0.00,623,TxWx,2013-10-26 16:34:00,
2013-10-26 11:39:00,51.0,34.0,29.87,West,259,8.1,10.2,52,0.00,,,0.00,353,TxWx,2013-10-26 16:39:00,
2013-10-26 11:44:00,51.4,34.0,29.87,West,266,8.7,8.7,53,0.00,,,0.00,628,TxWx,2013-10-26 16:44:00,
2013-10-26 11:49:00,52.0,35.0,29.87,West,262,5.7,6.6,53,0.00,,,0.00,588,TxWx,2013-10-26 16:49:00,
2013-10-26 11:54:00,51.6,34.0,29.87,WSW,258,8.4,10.8,51,0.00,,,0.00,625,TxWx,2013-10-26 16:54:00,
2013-10-26 11:59:00,51.9,34.0,29.87,WNW,288,11.4,11.7,51,0.00,,,0.00,709,TxWx,2013-10-26 16:59:00,
2013-10-26 12:04:00,52.3,34.0,29.87,WSW,249,8.7,8.7,51,0.00,,,0.00,447,TxWx,2013-10-26 17:04:00,
2013-10-26 12:09:00,53.2,36.0,29.87,NNW,331,5.4,5.4,52,0.00,,,0.00,554,TxWx,2013-10-26 17:09:00,
2013-10-26 12:14:00,52.9,35.0,29.87,NW,304,9.9,11.7,50,0.00,,,0.00,417,TxWx,2013-10-26 17:14:00,
2013-10-26 12:19:00,52.6,35.0,29.87,West,270,9.3,12.6,51,0.00,,,0.00,475,TxWx,2013-10-26 17:19:00,
2013-10-26 12:24:00,53.3,35.0,29.87,WNW,298,6.3,9.3,51,0.00,,,0.00,616,TxWx,2013-10-26 17:24:00,
2013-10-26 12:29:00,53.2,35.0,29.86,WSW,251,8.1,8.7,50,0.00,,,0.00,693,TxWx,2013-10-26 17:29:00,
2013-10-26 12:34:00,53.4,35.0,29.86,West,266,15.6,15.6,51,0.00,,,0.00,572,TxWx,2013-10-26 17:34:00,
2013-10-26 12:39:00,53.6,35.0,29.87,West,275,7.8,8.1,50,0.00,,,0.00,469,TxWx,2013-10-26 17:39:00,
2013-10-26 12:44:00,53.4,34.0,29.86,WNW,285,18.6,18.6,49,0.00,,,0.00,319,TxWx,2013-10-26 17:44:00,
2013-10-26 12:49:00,53.0,35.0,29.87,West,267,3.3,3.6,51,0.00,,,0.00,393,TxWx,2013-10-26 17:49:00,
2013-10-26 12:54:00,53.0,35.0,29.87,West,278,8.1,10.5,50,0.00,,,0.00,518,TxWx,2013-10-26 17:54:00,
2013-10-26 12:59:00,53.2,35.0,29.86,NW,307,12.3,13.2,50,0.00,,,0.00,588,TxWx,2013-10-26 17:59:00,
2013-10-26 13:04:00,53.6,35.0,29.87,WNW,303,7.8,7.8,49,0.00,,,0.00,513,TxWx,2013-10-26 18:04:00,
2013-10-26 13:09:00,53.8,35.0,29.87,WNW,299,5.1,9.6,49,0.00,,,0.00,199,TxWx,2013-10-26 18:09:00,
2013-10-26 13:15:00,54.2,36.0,29.87,NE,53,2.1,2.1,51,0.00,,,0.00,678,TxWx,2013-10-26 18:15:00,
2013-10-26 13:20:00,55.0,36.0,29.87,WSW,243,7.8,7.8,49,0.00,,,0.00,552,TxWx,2013-10-26 18:20:00,
2013-10-26 13:25:00,54.8,35.0,29.87,West,280,6.6,6.6,48,0.00,,,0.00,619,TxWx,2013-10-26 18:25:00,
2013-10-26 13:30:00,54.1,35.0,29.88,WNW,296,8.4,8.7,48,0.00,,,0.00,279,TxWx,2013-10-26 18:30:00,
2013-10-26 13:35:00,54.5,35.0,29.88,NNW,333,3.0,3.0,49,0.00,,,0.00,384,TxWx,2013-10-26 18:35:00,
2013-10-26 13:40:00,54.6,36.0,29.88,WNW,299,5.4,7.8,49,0.00,,,0.00,209,TxWx,2013-10-26 18:40:00,
2013-10-26 13:45:00,54.0,35.0,29.88,NW,317,7.8,9.3,49,0.00,,,0.00,165,TxWx,2013-10-26 18:45:00,
2013-10-26 13:50:00,53.5,34.0,29.88,WNW,290,4.2,6.3,49,0.00,,,0.00,129,TxWx,2013-10-26 18:50:00,
2013-10-26 13:55:00,52.9,35.0,29.88,West,276,7.5,7.5,50,0.00,,,0.00,103,TxWx,2013-10-26 18:55:00,
2013-10-26 14:00:00,53.3,35.0,29.89,WSW,253,5.7,5.7,50,0.00,,,0.00,180,TxWx,2013-10-26 19:00:00,
2013-10-26 14:05:00,53.5,35.0,29.89,SW,221,6.0,9.3,50,0.00,,,0.00,726,TxWx,2013-10-26 19:05:00,
2013-10-26 14:10:00,54.0,35.0,29.89,WSW,239,11.4,15.0,49,0.00,,,0.00,763,TxWx,2013-10-26 19:10:00,
2013-10-26 14:15:00,54.8,36.0,29.89,West,261,3.6,4.5,49,0.00,,,0.00,251,TxWx,2013-10-26 19:15:00,
2013-10-26 14:20:00,54.0,34.0,29.90,WSW,243,8.7,13.2,47,0.00,,,0.00,162,TxWx,2013-10-26 19:20:00,
2013-10-26 14:25:00,53.1,34.0,29.90,West,270,12.0,13.2,48,0.00,,,0.00,166,TxWx,2013-10-26 19:25:00,
2013-10-26 14:30:00,53.3,34.0,29.90,WNW,299,12.9,12.9,49,0.00,,,0.00,679,TxWx,2013-10-26 19:30:00,
2013-10-26 14:35:00,54.0,35.0,29.90,WNW,298,4.5,4.5,49,0.00,,,0.00,573,TxWx,2013-10-26 19:35:00,
2013-10-26 14:40:00,53.8,34.0,29.90,WNW,299,4.5,4.8,47,0.00,,,0.00,559,TxWx,2013-10-26 19:40:00,
2013-10-26 14:45:00,54.0,34.0,29.90,NW,313,7.2,7.8,46,0.00,,,0.00,436,TxWx,2013-10-26 19:45:00,
2013-10-26 14:50:00,54.3,34.0,29.90,WSW,242,1.5,2.4,47,0.00,,,0.00,179,TxWx,2013-10-26 19:50:00,
2013-10-26 14:55:00,53.1,33.0,29.90,NW,317,4.2,5.7,46,0.00,,,0.00,158,TxWx,2013-10-26 19:55:00,
2013-10-26 15:00:00,53.1,33.0,29.91,NW,309,3.6,3.9,47,0.00,,,0.00,165,TxWx,2013-10-26 20:00:00,
2013-10-26 15:05:00,53.0,34.0,29.91,WNW,297,6.3,7.5,48,0.00,,,0.00,147,TxWx,2013-10-26 20:05:00,
2013-10-26 15:10:00,52.7,33.0,29.91,West,275,7.2,9.3,47,0.00,,,0.00,94,TxWx,2013-10-26 20:10:00,
2013-10-26 15:15:00,52.6,34.0,29.92,West,263,6.6,6.6,48,0.00,,,0.00,96,TxWx,2013-10-26 20:15:00,
2013-10-26 15:20:00,52.7,34.0,29.92,NW,306,3.0,4.8,48,0.00,,,0.00,185,TxWx,2013-10-26 20:20:00,
2013-10-26 15:26:00,52.9,34.0,29.92,WSW,258,9.0,11.7,48,0.00,,,0.00,95,TxWx,2013-10-26 20:26:00,
2013-10-26 15:31:00,53.0,34.0,29.92,ENE,73,1.2,1.8,48,0.00,,,0.00,36,TxWx,2013-10-26 20:31:00,
2013-10-26 15:36:00,52.8,34.0,29.92,NNE,29,3.9,5.1,48,0.00,,,0.00,27,TxWx,2013-10-26 20:36:00,
2013-10-26 15:41:00,52.7,34.0,29.93,WNW,294,1.8,1.8,49,0.00,,,0.00,48,TxWx,2013-10-26 20:41:00,
2013-10-26 15:46:00,52.5,33.0,29.93,NW,321,7.2,7.5,49,0.00,,,0.00,29,TxWx,2013-10-26 20:46:00,
2013-10-26 15:51:00,52.3,33.0,29.93,NNE,17,4.5,5.4,48,0.00,,,0.00,40,TxWx,2013-10-26 20:51:00,
2013-10-26 15:56:00,52.3,32.0,29.94,North,6,6.3,6.3,47,0.00,,,0.00,81,TxWx,2013-10-26 20:56:00,
2013-10-26 16:01:00,52.3,31.0,29.94,West,267,5.4,5.4,46,0.00,,,0.00,69,TxWx,2013-10-26 21:01:00,
2013-10-26 16:06:00,52.1,31.0,29.94,NNW,348,3.9,4.8,46,0.00,,,0.00,53,TxWx,2013-10-26 21:06:00,
2013-10-26 16:11:00,51.9,31.0,29.95,SW,214,1.5,3.9,46,0.00,,,0.00,65,TxWx,2013-10-26 21:11:00,
2013-10-26 16:16:00,51.9,32.0,29.95,WNW,290,3.3,4.5,47,0.00,,,0.00,92,TxWx,2013-10-26 21:16:00,
2013-10-26 16:21:00,51.9,32.0,29.95,WNW,300,2.1,3.0,47,0.00,,,0.00,89,TxWx,2013-10-26 21:21:00,
2013-10-26 16:26:00,51.8,33.0,29.95,NNW,348,6.3,8.7,48,0.00,,,0.00,92,TxWx,2013-10-26 21:26:00,
2013-10-26 16:31:00,51.8,33.0,29.96,NNE,26,4.2,4.2,49,0.00,,,0.00,74,TxWx,2013-10-26 21:31:00,
2013-10-26 16:36:00,51.5,33.0,29.96,North,1,7.8,7.8,48,0.00,,,0.00,52,TxWx,2013-10-26 21:36:00,
2013-10-26 16:41:00,51.3,32.0,29.97,ENE,60,1.8,2.4,49,0.00,,,0.00,41,TxWx,2013-10-26 21:41:00,
2013-10-26 16:46:00,51.2,32.0,29.97,NW,319,1.8,3.0,49,0.00,,,0.00,23,TxWx,2013-10-26 21:46:00,
2013-10-26 16:51:00,50.9,33.0,29.97,NW,322,3.0,3.6,50,0.00,,,0.00,18,TxWx,2013-10-26 21:51:00,
2013-10-26 16:56:00,50.8,32.0,29.97,South,191,1.8,3.3,49,0.00,,,0.00,8,TxWx,2013-10-26 21:56:00,
2013-10-26 17:01:00,50.6,32.0,29.98,WSW,247,3.0,3.3,49,0.00,,,0.00,3,TxWx,2013-10-26 22:01:00,
2013-10-26 17:06:00,50.6,33.0,29.98,NNW,332,1.2,1.2,50,0.00,,,0.00,3,TxWx,2013-10-26 22:06:00,
2013-10-26 17:11:00,50.5,32.0,29.98,NNW,328,2.4,3.3,50,0.00,,,0.00,6,TxWx,2013-10-26 22:11:00,
2013-10-26 17:16:00,50.4,31.0,29.98,WNW,295,4.8,4.8,50,0.00,,,0.00,4,TxWx,2013-10-26 22:16:00,
2013-10-26 17:21:00,50.4,32.0,29.98,WSW,245,1.2,1.2,50,0.00,,,0.00,7,TxWx,2013-10-26 22:21:00,
2013-10-26 17:26:00,50.4,31.0,29.99,WNW,301,1.5,2.4,50,0.00,,,0.00,4,TxWx,2013-10-26 22:26:00,
2013-10-26 17:31:00,50.3,31.0,29.99,NNW,345,1.2,1.2,50,0.00,,,0.00,3,TxWx,2013-10-26 22:31:00,
2013-10-26 17:36:00,50.3,31.0,29.99,NW,315,1.8,1.8,49,0.00,,,0.00,3,TxWx,2013-10-26 22:36:00,
2013-10-26 17:41:00,50.2,31.0,29.99,NNW,336,1.5,2.1,50,0.00,,,0.00,5,TxWx,2013-10-26 22:41:00,
2013-10-26 17:46:00,50.1,32.0,29.99,South,178,0.6,0.6,50,0.00,,,0.00,3,TxWx,2013-10-26 22:46:00,
2013-10-26 17:51:00,50.0,32.0,30.00,NW,320,2.1,2.1,50,0.00,,,0.00,2,TxWx,2013-10-26 22:51:00,
2013-10-26 17:57:00,49.9,31.0,30.00,WNW,300,4.8,4.8,49,0.00,,,0.00,1,TxWx,2013-10-26 22:57:00,
2013-10-26 18:02:00,50.0,31.0,30.00,NW,322,1.8,1.8,49,0.00,,,0.00,0,TxWx,2013-10-26 23:02:00,
2013-10-26 18:07:00,49.9,31.0,30.00,NE,50,2.1,3.3,49,0.00,,,0.00,0,TxWx,2013-10-26 23:07:00,
2013-10-26 18:12:00,49.6,32.0,30.00,West,279,1.5,1.5,50,0.00,,,0.00,0,TxWx,2013-10-26 23:12:00,
2013-10-26 18:17:00,49.4,30.0,30.00,NNE,28,1.5,1.5,51,0.00,,,0.00,0,TxWx,2013-10-26 23:17:00,
2013-10-26 18:22:00,49.3,30.0,30.00,NW,305,1.8,2.1,51,0.00,,,0.00,0,TxWx,2013-10-26 23:22:00,
2013-10-26 18:27:00,49.1,30.0,30.01,NNW,337,0.6,0.6,51,0.00,,,0.00,0,TxWx,2013-10-26 23:27:00,
2013-10-26 18:32:00,48.7,31.0,30.01,WSW,245,0.6,0.6,52,0.00,,,0.00,0,TxWx,2013-10-26 23:32:00,
2013-10-26 18:37:00,48.4,30.0,30.01,South,177,0.9,1.5,52,0.00,,,0.00,0,TxWx,2013-10-26 23:37:00,
2013-10-26 18:42:00,48.3,30.0,30.01,North,353,0.6,0.9,52,0.00,,,0.00,0,TxWx,2013-10-26 23:42:00,
2013-10-26 18:47:00,48.2,30.0,30.01,WNW,282,1.5,1.5,52,0.00,,,0.00,0,TxWx,2013-10-26 23:47:00,
2013-10-26 18:52:00,47.9,30.0,30.02,SSE,161,1.5,1.5,52,0.00,,,0.00,0,TxWx,2013-10-26 23:52:00,
2013-10-26 18:57:00,47.8,30.0,30.02,North,354,1.2,1.2,53,0.00,,,0.00,0,TxWx,2013-10-26 23:57:00,
2013-10-26 19:02:00,47.7,30.0,30.02,North,350,0.9,1.2,53,0.00,,,0.00,0,TxWx,2013-10-27 00:02:00,
2013-10-26 19:07:00,47.6,30.0,30.02,NNW,340,0.0,0.3,53,0.00,,,0.00,0,TxWx,2013-10-27 00:07:00,
2013-10-26 19:12:00,47.3,29.0,30.02,West,266,0.9,1.2,53,0.00,,,0.00,0,TxWx,2013-10-27 00:12:00,
2013-10-26 19:17:00,47.2,29.0,30.03,West,279,0.9,1.2,53,0.00,,,0.00,0,TxWx,2013-10-27 00:17:00,
2013-10-26 19:22:00,47.1,29.0,30.03,SW,222,0.9,0.9,53,0.00,,,0.00,0,TxWx,2013-10-27 00:22:00,
2013-10-26 19:27:00,47.1,29.0,30.03,NW,312,0.6,0.9,52,0.00,,,0.00,0,TxWx,2013-10-27 00:27:00,
2013-10-26 19:32:00,47.1,29.0,30.03,NNW,344,0.6,0.9,52,0.00,,,0.00,0,TxWx,2013-10-27 00:32:00,
2013-10-26 19:37:00,46.8,29.0,30.03,WNW,296,0.3,0.6,52,0.00,,,0.00,0,TxWx,2013-10-27 00:37:00,
2013-10-26 19:42:00,46.8,29.0,30.03,North,355,0.6,0.6,52,0.00,,,0.00,0,TxWx,2013-10-27 00:42:00,
2013-10-26 19:47:00,46.8,29.0,30.04,NW,306,1.2,1.2,52,0.00,,,0.00,0,TxWx,2013-10-27 00:47:00,
2013-10-26 19:52:00,46.7,29.0,30.04,NNW,330,1.5,2.4,52,0.00,,,0.00,0,TxWx,2013-10-27 00:52:00,
2013-10-26 19:57:00,46.4,29.0,30.04,NNW,331,1.5,1.8,53,0.00,,,0.00,0,TxWx,2013-10-27 00:57:00,
2013-10-26 20:02:00,46.2,29.0,30.04,South,185,0.9,0.9,54,0.00,,,0.00,0,TxWx,2013-10-27 01:02:00,
2013-10-26 20:07:00,46.1,29.0,30.04,West,279,1.2,1.8,54,0.00,,,0.00,0,TxWx,2013-10-27 01:07:00,
2013-10-26 20:12:00,46.1,29.0,30.04,NE,37,0.9,1.2,54,0.00,,,0.00,0,TxWx,2013-10-27 01:12:00,
2013-10-26 20:17:00,46.1,29.0,30.04,WNW,302,2.1,2.4,54,0.00,,,0.00,0,TxWx,2013-10-27 01:17:00,
2013-10-26 20:22:00,45.9,29.0,30.04,NW,313,0.9,0.9,54,0.00,,,0.00,0,TxWx,2013-10-27 01:22:00,
2013-10-26 20:28:00,45.8,29.0,30.04,NW,310,1.5,2.1,55,0.00,,,0.00,0,TxWx,2013-10-27 01:28:00,
2013-10-26 20:33:00,45.8,29.0,30.04,WNW,285,1.2,1.2,55,0.00,,,0.00,0,TxWx,2013-10-27 01:33:00,
2013-10-26 20:38:00,45.6,30.0,30.05,West,279,1.8,2.7,55,0.00,,,0.00,0,TxWx,2013-10-27 01:38:00,
2013-10-26 20:43:00,45.3,29.0,30.05,West,278,2.1,2.1,55,0.00,,,0.00,0,TxWx,2013-10-27 01:43:00,
2013-10-26 20:48:00,44.7,29.0,30.05,West,275,1.5,1.5,57,0.00,,,0.00,0,TxWx,2013-10-27 01:48:00,
2013-10-26 20:53:00,44.0,29.0,30.05,West,266,1.5,1.8,58,0.00,,,0.00,0,TxWx,2013-10-27 01:53:00,
2013-10-26 20:58:00,43.8,30.0,30.05,NW,305,0.3,0.6,59,0.00,,,0.00,0,TxWx,2013-10-27 01:58:00,
2013-10-26 21:03:00,43.6,30.0,30.05,WNW,294,0.9,0.9,60,0.00,,,0.00,0,TxWx,2013-10-27 02:03:00,
2013-10-26 21:08:00,43.4,29.0,30.05,WNW,282,2.1,2.4,61,0.00,,,0.00,0,TxWx,2013-10-27 02:08:00,
2013-10-26 21:13:00,43.2,29.0,30.06,West,277,0.9,0.9,61,0.00,,,0.00,0,TxWx,2013-10-27 02:13:00,
2013-10-26 21:18:00,43.1,30.0,30.06,NW,318,0.9,1.2,62,0.00,,,0.00,0,TxWx,2013-10-27 02:18:00,
2013-10-26 21:23:00,42.9,30.0,30.06,West,281,2.4,2.7,62,0.00,,,0.00,0,TxWx,2013-10-27 02:23:00,
2013-10-26 21:28:00,42.9,30.0,30.06,WNW,285,2.7,3.3,62,0.00,,,0.00,0,TxWx,2013-10-27 02:28:00,
2013-10-26 21:33:00,43.0,30.0,30.07,NNW,335,0.9,1.2,63,0.00,,,0.00,0,TxWx,2013-10-27 02:33:00,
2013-10-26 21:38:00,42.5,29.0,30.07,West,273,0.9,0.9,63,0.00,,,0.00,0,TxWx,2013-10-27 02:38:00,
2013-10-26 21:43:00,42.4,29.0,30.07,WNW,284,2.7,2.7,64,0.00,,,0.00,0,TxWx,2013-10-27 02:43:00,
2013-10-26 21:48:00,42.4,29.0,30.07,NW,309,2.4,2.4,64,0.00,,,0.00,0,TxWx,2013-10-27 02:48:00,
2013-10-26 21:53:00,42.5,29.0,30.07,WNW,282,2.4,3.0,63,0.00,,,0.00,0,TxWx,2013-10-27 02:53:00,
2013-10-26 21:58:00,42.5,30.0,30.07,NW,313,2.4,2.4,63,0.00,,,0.00,0,TxWx,2013-10-27 02:58:00,
2013-10-26 22:03:00,42.5,29.0,30.07,West,274,1.5,2.1,63,0.00,,,0.00,0,TxWx,2013-10-27 03:03:00,
2013-10-26 22:08:00,42.3,29.0,30.07,West,263,2.1,2.7,63,0.00,,,0.00,0,TxWx,2013-10-27 03:08:00,
2013-10-26 22:13:00,42.1,29.0,30.08,West,280,3.0,3.3,63,0.00,,,0.00,0,TxWx,2013-10-27 03:13:00,
2013-10-26 22:18:00,42.0,29.0,30.07,WNW,283,3.0,3.6,63,0.00,,,0.00,0,TxWx,2013-10-27 03:18:00,
2013-10-26 22:23:00,41.9,29.0,30.07,West,270,1.2,1.8,63,0.00,,,0.00,0,TxWx,2013-10-27 03:23:00,
2013-10-26 22:28:00,41.9,29.0,30.08,West,280,2.4,2.7,63,0.00,,,0.00,0,TxWx,2013-10-27 03:28:00,
2013-10-26 22:33:00,41.9,29.0,30.07,WNW,301,2.4,3.3,62,0.00,,,0.00,0,TxWx,2013-10-27 03:33:00,
2013-10-26 22:38:00,41.7,29.0,30.07,NW,305,1.8,2.1,63,0.00,,,0.00,0,TxWx,2013-10-27 03:38:00,
2013-10-26 22:43:00,41.7,29.0,30.08,West,281,2.4,3.0,62,0.00,,,0.00,0,TxWx,2013-10-27 03:43:00,
2013-10-26 22:48:00,41.6,29.0,30.07,West,275,3.6,3.6,62,0.00,,,0.00,0,TxWx,2013-10-27 03:48:00,
2013-10-26 22:54:00,41.5,28.0,30.08,WSW,258,3.0,3.0,62,0.00,,,0.00,0,TxWx,2013-10-27 03:54:00,
2013-10-26 22:59:00,41.4,28.0,30.07,WNW,282,1.8,1.8,63,0.00,,,0.00,0,TxWx,2013-10-27 03:59:00,
2013-10-26 23:01:00,41.3,28.0,30.08,West,274,2.4,3.3,63,0.00,,,0.00,0,TxWx,2013-10-27 04:01:00,
2013-10-26 23:06:00,41.2,28.0,30.08,WNW,302,3.0,3.6,63,0.00,,,0.00,0,TxWx,2013-10-27 04:06:00,
2013-10-26 23:11:00,41.2,28.0,30.07,WNW,289,3.3,3.9,63,0.00,,,0.00,0,TxWx,2013-10-27 04:11:00,
2013-10-26 23:16:00,41.0,28.0,30.07,WNW,286,1.5,1.5,63,0.00,,,0.00,0,TxWx,2013-10-27 04:16:00,
2013-10-26 23:21:00,41.0,28.0,30.07,West,266,1.5,1.8,63,0.00,,,0.00,0,TxWx,2013-10-27 04:21:00,
2013-10-26 23:26:00,40.9,29.0,30.07,WNW,295,2.4,2.7,64,0.00,,,0.00,0,TxWx,2013-10-27 04:26:00,
2013-10-26 23:31:00,40.8,29.0,30.07,West,277,3.0,3.0,64,0.00,,,0.00,0,TxWx,2013-10-27 04:31:00,
2013-10-26 23:36:00,40.5,29.0,30.06,West,273,2.1,2.1,64,0.00,,,0.00,0,TxWx,2013-10-27 04:36:00,
2013-10-26 23:41:00,40.3,28.0,30.06,North,9,1.2,1.2,65,0.00,,,0.00,0,TxWx,2013-10-27 04:41:00,
2013-10-26 23:46:00,40.1,28.0,30.06,West,272,1.5,1.8,66,0.00,,,0.00,0,TxWx,2013-10-27 04:46:00,
2013-10-26 23:51:00,40.0,28.0,30.06,WNW,283,1.2,1.2,66,0.00,,,0.00,0,TxWx,2013-10-27 04:51:00,
2013-10-26 23:56:00,40.0,28.0,30.06,NW,305,1.2,1.8,66,0.00,,,0.00,0,TxWx,2013-10-27 04:56:00,